Regional Weather Roundup
Issued by NWS Goodland, KS

Home | Current Version | Previous Version | Graphics & Text | Print | Product List | Glossary On
Versions: 1 2 3 4 5 6 7 8 9 10 11 12 13 14 15 16 17 18 19 20 21 22 23 24 25 26 27 28 29 30 31 32 33 34 35 36 37 38 39 40 41 42 43 44 45 46 47 48 49 50
000
ASUS43 KGLD 270808
RWRGLD

GOODLAND FORECAST AREA HOURLY WEATHER ROUNDUP
NATIONAL WEATHER SERVICE GOODLAND KS
200 AM MDT SUN MAY 27 2018

...OFFICIAL OBSERVATIONS...

CITY           SKY/WX    TMP DP  RH WIND       PRES   REMARKS
GOODLAND KS    MOCLDY    66  52  60 S14       29.85S
HILL CITY KS   CLOUDY    68  59  73 S7        29.84R
IMPERIAL NEB   MOCLDY    71  51  49 S15       29.81S
MCCOOK NEB     CLOUDY    71  55  56 S8        29.82S
AKRON CO       CLOUDY    71  52  50 S22G36    29.83S
BURLINGTON CO  MOCLDY    66  51  58 S16       29.87S
LIMON CO       CLOUDY    62  51  67 SE10      29.90F
$$

...UNOFFICIAL OBSERVATIONS...

CITY           SKY/WX    TMP DP  RH WIND       PRES   REMARKS
COLBY KS       MOCLDY    68  55  64 S13       29.86S
NORTON KS      CLEAR     70  55  60 S9        29.84
KIT CARSON CO    N/A     70  55  58 MISG        N/A
YUMA CO        FAIR      66  46  48 S17G26    29.82S
$$




USA.gov is the U.S. government's official web portal to all federal, state and local government web resources and services.